Time,TemperatureF,DewpointF,PressureIn,WindDirection,WindDirectionDegrees,WindSpeedMPH,WindSpeedGustMPH,Humidity,HourlyPrecipIn,Conditions,Clouds,dailyrainin,SoftwareType,DateUTC
2013-07-15 00:01:00,76.4,73.6,30.24,ESE,103,0.0,0.0,91,0.00,,---,0.00,VWS V14.01,2013-07-15 04:01:00,
2013-07-15 00:06:00,76.3,73.5,30.24,ESE,103,0.0,0.0,91,0.00,,---,0.00,VWS V14.01,2013-07-15 04:06:00,
2013-07-15 00:11:00,76.3,73.5,30.24,ESE,103,0.0,0.0,91,0.00,,---,0.00,VWS V14.01,2013-07-15 04:11:00,
2013-07-15 00:16:00,76.2,73.4,30.24,ESE,103,0.0,0.0,91,0.00,,---,0.00,VWS V14.01,2013-07-15 04:16:00,
2013-07-15 00:21:00,76.2,73.4,30.24,ESE,103,0.0,0.0,91,0.00,,---,0.00,VWS V14.01,2013-07-15 04:21:00,
2013-07-15 00:26:00,76.1,73.3,30.24,ESE,103,0.0,0.0,91,0.00,,---,0.00,VWS V14.01,2013-07-15 04:26:00,
2013-07-15 00:31:00,76.0,73.2,30.24,ESE,103,0.0,0.0,91,0.00,,---,0.00,VWS V14.01,2013-07-15 04:31:00,
2013-07-15 00:36:00,75.9,73.1,30.24,ESE,103,0.0,0.0,91,0.00,,---,0.00,VWS V14.01,2013-07-15 04:36:00,
2013-07-15 00:41:00,75.8,73.3,30.24,ESE,103,0.0,0.0,92,0.00,,---,0.00,VWS V14.01,2013-07-15 04:41:00,
2013-07-15 00:46:00,75.7,72.9,30.24,ESE,103,0.0,0.0,91,0.00,,---,0.00,VWS V14.01,2013-07-15 04:46:00,
2013-07-15 00:51:00,75.6,72.8,30.24,ESE,103,0.0,0.0,91,0.00,,---,0.00,VWS V14.01,2013-07-15 04:51:00,
2013-07-15 00:56:00,75.5,73.0,30.24,ESE,103,0.0,0.0,92,0.00,,---,0.00,VWS V14.01,2013-07-15 04:56:00,
2013-07-15 01:01:00,75.5,73.0,30.24,ESE,103,0.0,0.0,92,0.00,,---,0.00,VWS V14.01,2013-07-15 05:01:00,
2013-07-15 01:06:00,75.3,72.8,30.24,ESE,103,0.0,0.0,92,0.00,,---,0.00,VWS V14.01,2013-07-15 05:06:00,
2013-07-15 01:11:00,75.3,72.8,30.24,ESE,103,0.0,0.0,92,0.00,,---,0.00,VWS V14.01,2013-07-15 05:11:00,
2013-07-15 01:16:00,75.2,72.7,30.24,ESE,103,0.0,0.0,92,0.00,,---,0.00,VWS V14.01,2013-07-15 05:16:00,
2013-07-15 01:21:00,75.1,72.6,30.24,ESE,103,0.0,0.0,92,0.00,,---,0.00,VWS V14.01,2013-07-15 05:21:00,
2013-07-15 01:26:00,75.1,72.6,30.24,ESE,103,0.0,0.0,92,0.00,,---,0.00,VWS V14.01,2013-07-15 05:26:00,
2013-07-15 01:31:00,75.0,72.2,30.24,ESE,103,0.0,0.0,91,0.00,,---,0.00,VWS V14.01,2013-07-15 05:31:00,
2013-07-15 01:36:00,74.9,72.1,30.24,ESE,103,0.0,0.0,91,0.00,,---,0.00,VWS V14.01,2013-07-15 05:36:00,
2013-07-15 01:41:00,74.9,72.1,30.24,ESE,103,0.0,0.0,91,0.00,,---,0.00,VWS V14.01,2013-07-15 05:41:00,
2013-07-15 01:46:00,74.9,72.1,30.24,ESE,103,0.0,0.0,91,0.00,,---,0.00,VWS V14.01,2013-07-15 05:46:00,
2013-07-15 01:51:00,74.9,72.1,30.24,ESE,103,0.0,0.0,91,0.00,,---,0.00,VWS V14.01,2013-07-15 05:51:00,
2013-07-15 01:56:00,74.9,72.1,30.24,ESE,103,0.0,0.0,91,0.00,,---,0.00,VWS V14.01,2013-07-15 05:56:00,
2013-07-15 02:01:00,74.9,72.1,30.24,ESE,103,0.0,0.0,91,0.00,,---,0.00,VWS V14.01,2013-07-15 06:01:00,
2013-07-15 02:06:00,74.8,72.0,30.24,ESE,103,0.0,0.0,91,0.00,,---,0.00,VWS V14.01,2013-07-15 06:06:00,
2013-07-15 02:11:00,74.7,71.6,30.24,ESE,103,0.0,0.0,90,0.00,,---,0.00,VWS V14.01,2013-07-15 06:11:00,
2013-07-15 02:16:00,74.6,71.5,30.24,ESE,103,0.0,0.0,90,0.00,,---,0.00,VWS V14.01,2013-07-15 06:16:00,
2013-07-15 02:21:00,74.7,71.6,30.25,ESE,103,0.0,0.0,90,0.00,,---,0.00,VWS V14.01,2013-07-15 06:21:00,
2013-07-15 02:26:00,74.6,71.5,30.25,ESE,103,0.0,0.0,90,0.00,,---,0.00,VWS V14.01,2013-07-15 06:26:00,
2013-07-15 02:31:00,74.4,71.3,30.24,ESE,103,0.0,0.0,90,0.00,,---,0.00,VWS V14.01,2013-07-15 06:31:00,
2013-07-15 02:36:00,74.4,71.3,30.24,ESE,103,0.0,0.0,90,0.00,,---,0.00,VWS V14.01,2013-07-15 06:36:00,
2013-07-15 02:41:00,74.3,71.2,30.24,ESE,103,0.0,0.0,90,0.00,,---,0.00,VWS V14.01,2013-07-15 06:41:00,
2013-07-15 02:46:00,74.3,71.5,30.24,ESE,103,0.0,0.0,91,0.00,,---,0.00,VWS V14.01,2013-07-15 06:46:00,
2013-07-15 02:51:00,74.2,71.4,30.24,ESE,103,0.0,0.0,91,0.00,,---,0.00,VWS V14.01,2013-07-15 06:51:00,
2013-07-15 02:56:00,74.2,71.4,30.24,ESE,103,0.0,0.0,91,0.00,,---,0.00,VWS V14.01,2013-07-15 06:56:00,
2013-07-15 03:01:00,74.1,71.3,30.24,ESE,103,0.0,0.0,91,0.00,,---,0.00,VWS V14.01,2013-07-15 07:01:00,
2013-07-15 03:06:00,74.1,71.3,30.24,ESE,103,0.0,0.0,91,0.00,,---,0.00,VWS V14.01,2013-07-15 07:06:00,
2013-07-15 03:11:00,74.1,71.3,30.24,ESE,103,0.0,0.0,91,0.00,,---,0.00,VWS V14.01,2013-07-15 07:11:00,
2013-07-15 03:16:00,74.1,71.3,30.24,ESE,103,0.0,0.0,91,0.00,,---,0.00,VWS V14.01,2013-07-15 07:16:00,
2013-07-15 03:21:00,74.0,71.2,30.24,ESE,103,0.0,0.0,91,0.00,,---,0.00,VWS V14.01,2013-07-15 07:21:00,
2013-07-15 03:26:00,73.9,71.1,30.24,ESE,103,0.0,0.0,91,0.00,,---,0.00,VWS V14.01,2013-07-15 07:26:00,
2013-07-15 03:31:00,73.9,71.1,30.24,ESE,103,0.0,0.0,91,0.00,,---,0.00,VWS V14.01,2013-07-15 07:31:00,
2013-07-15 03:36:00,73.9,71.4,30.24,ESE,103,0.0,0.0,92,0.00,,---,0.00,VWS V14.01,2013-07-15 07:36:00,
2013-07-15 03:41:00,73.8,71.3,30.25,ESE,103,0.0,0.0,92,0.00,,---,0.00,VWS V14.01,2013-07-15 07:41:00,
2013-07-15 03:46:00,73.8,71.3,30.25,ESE,103,0.0,0.0,92,0.00,,---,0.00,VWS V14.01,2013-07-15 07:46:00,
2013-07-15 03:51:00,73.7,71.2,30.25,ESE,103,0.0,0.0,92,0.00,,---,0.00,VWS V14.01,2013-07-15 07:51:00,
2013-07-15 03:56:00,73.7,71.2,30.25,ESE,103,0.0,0.0,92,0.00,,---,0.00,VWS V14.01,2013-07-15 07:56:00,
2013-07-15 04:01:00,73.7,71.2,30.25,ESE,103,0.0,0.0,92,0.00,,---,0.00,VWS V14.01,2013-07-15 08:01:00,
2013-07-15 04:06:00,73.7,71.2,30.25,ESE,103,0.0,0.0,92,0.00,,---,0.00,VWS V14.01,2013-07-15 08:06:00,
2013-07-15 04:11:00,73.6,71.1,30.25,ESE,103,0.0,0.0,92,0.00,,---,0.00,VWS V14.01,2013-07-15 08:11:00,
2013-07-15 04:16:00,73.7,71.6,30.25,ESE,103,0.0,0.0,93,0.00,,---,0.00,VWS V14.01,2013-07-15 08:16:00,
2013-07-15 04:21:00,73.7,71.6,30.25,ESE,103,0.0,0.0,93,0.00,,---,0.00,VWS V14.01,2013-07-15 08:21:00,
2013-07-15 04:26:00,73.6,71.5,30.25,ESE,103,0.0,0.0,93,0.00,,---,0.00,VWS V14.01,2013-07-15 08:26:00,
2013-07-15 04:31:00,73.7,71.6,30.25,ESE,103,0.0,0.0,93,0.00,,---,0.00,VWS V14.01,2013-07-15 08:31:00,
2013-07-15 04:36:00,73.7,71.6,30.25,ESE,103,0.0,0.0,93,0.00,,---,0.00,VWS V14.01,2013-07-15 08:36:00,
2013-07-15 04:41:00,73.8,71.7,30.25,ESE,103,0.0,0.0,93,0.00,,---,0.00,VWS V14.01,2013-07-15 08:41:00,
2013-07-15 04:46:00,73.9,71.8,30.25,ESE,103,0.0,0.0,93,0.00,,---,0.00,VWS V14.01,2013-07-15 08:46:00,
2013-07-15 04:51:00,73.9,72.1,30.25,ESE,103,0.0,0.0,94,0.00,,---,0.00,VWS V14.01,2013-07-15 08:51:00,
2013-07-15 04:56:00,74.0,72.2,30.25,ESE,103,0.0,0.0,94,0.00,,---,0.00,VWS V14.01,2013-07-15 08:56:00,
2013-07-15 05:01:00,74.1,72.3,30.25,ESE,103,0.0,0.0,94,0.00,,---,0.00,VWS V14.01,2013-07-15 09:01:00,
2013-07-15 05:06:00,74.1,72.3,30.25,ESE,103,0.0,0.0,94,0.00,,---,0.00,VWS V14.01,2013-07-15 09:06:00,
2013-07-15 05:11:00,74.0,72.2,30.25,ESE,103,0.0,0.0,94,0.00,,---,0.00,VWS V14.01,2013-07-15 09:11:00,
2013-07-15 05:16:00,74.0,72.2,30.25,ESE,103,0.0,0.0,94,0.00,,---,0.00,VWS V14.01,2013-07-15 09:16:00,
2013-07-15 05:21:00,74.0,72.2,30.25,ESE,103,0.0,0.0,94,0.00,,---,0.00,VWS V14.01,2013-07-15 09:21:00,
2013-07-15 05:26:00,74.0,72.2,30.25,ESE,103,0.0,0.0,94,0.00,,---,0.00,VWS V14.01,2013-07-15 09:26:00,
2013-07-15 05:31:00,74.0,72.2,30.25,ESE,103,0.0,0.0,94,0.00,,---,0.00,VWS V14.01,2013-07-15 09:31:00,
2013-07-15 05:36:00,74.0,72.2,30.26,ESE,103,0.0,0.0,94,0.00,,---,0.00,VWS V14.01,2013-07-15 09:36:00,
2013-07-15 05:41:00,74.0,72.2,30.26,ESE,103,0.0,0.0,94,0.00,,---,0.00,VWS V14.01,2013-07-15 09:41:00,
2013-07-15 05:46:00,74.0,72.2,30.26,ESE,103,0.0,0.0,94,0.00,,---,0.00,VWS V14.01,2013-07-15 09:46:00,
2013-07-15 05:51:00,74.0,72.2,30.26,ESE,103,0.0,0.0,94,0.00,,---,0.00,VWS V14.01,2013-07-15 09:51:00,
2013-07-15 05:56:00,74.0,72.2,30.26,ESE,103,0.0,0.0,94,0.00,,---,0.00,VWS V14.01,2013-07-15 09:56:00,
2013-07-15 06:01:00,74.1,72.3,30.26,ESE,103,0.0,0.0,94,0.00,,---,0.00,VWS V14.01,2013-07-15 10:01:00,
2013-07-15 06:06:00,74.1,72.3,30.26,ESE,103,0.0,0.0,94,0.00,,---,0.00,VWS V14.01,2013-07-15 10:06:00,
2013-07-15 06:11:00,74.1,72.3,30.26,ESE,103,0.0,0.0,94,0.00,,---,0.00,VWS V14.01,2013-07-15 10:11:00,
2013-07-15 06:16:00,74.1,72.3,30.26,ESE,103,0.0,0.0,94,0.00,,---,0.00,VWS V14.01,2013-07-15 10:16:00,
2013-07-15 06:21:00,74.1,72.3,30.27,ESE,103,0.0,0.0,94,0.00,,---,0.00,VWS V14.01,2013-07-15 10:21:00,
2013-07-15 06:26:00,74.1,72.3,30.27,ESE,103,0.0,0.0,94,0.00,,---,0.00,VWS V14.01,2013-07-15 10:26:00,
2013-07-15 06:31:00,74.2,72.7,30.27,ESE,103,0.0,0.0,95,0.00,,---,0.00,VWS V14.01,2013-07-15 10:31:00,
2013-07-15 06:36:00,74.4,72.9,30.27,ESE,103,0.0,0.0,95,0.00,,---,0.00,VWS V14.01,2013-07-15 10:36:00,
2013-07-15 06:41:00,74.4,72.9,30.27,ESE,103,0.0,0.0,95,0.00,,---,0.00,VWS V14.01,2013-07-15 10:41:00,
2013-07-15 06:46:00,74.6,73.1,30.27,ESE,103,0.0,0.0,95,0.00,,---,0.00,VWS V14.01,2013-07-15 10:46:00,
2013-07-15 06:51:00,74.6,73.1,30.27,ESE,103,0.0,0.0,95,0.00,,---,0.00,VWS V14.01,2013-07-15 10:51:00,
2013-07-15 06:56:00,74.7,72.9,30.27,ESE,103,0.0,0.0,94,0.00,,---,0.00,VWS V14.01,2013-07-15 10:56:00,
2013-07-15 07:01:00,74.9,73.4,30.27,ESE,103,0.0,0.0,95,0.00,,---,0.00,VWS V14.01,2013-07-15 11:01:00,
2013-07-15 07:06:00,74.9,73.1,30.27,ESE,103,0.0,0.0,94,0.00,,---,0.00,VWS V14.01,2013-07-15 11:06:00,
2013-07-15 07:11:00,75.1,73.6,30.27,ESE,103,0.0,0.0,95,0.00,,---,0.00,VWS V14.01,2013-07-15 11:11:00,
2013-07-15 07:16:00,75.2,73.7,30.28,ESE,103,0.0,0.0,95,0.00,,---,0.00,VWS V14.01,2013-07-15 11:16:00,
2013-07-15 07:21:00,75.3,73.5,30.28,ESE,103,0.0,0.0,94,0.00,,---,0.00,VWS V14.01,2013-07-15 11:21:00,
2013-07-15 07:26:00,75.5,73.7,30.28,ESE,103,0.0,0.0,94,0.00,,---,0.00,VWS V14.01,2013-07-15 11:26:00,
2013-07-15 07:31:00,75.6,73.8,30.28,ESE,103,0.0,0.0,94,0.00,,---,0.00,VWS V14.01,2013-07-15 11:31:00,
2013-07-15 07:36:00,75.8,73.9,30.28,ESE,103,0.0,0.0,94,0.00,,---,0.00,VWS V14.01,2013-07-15 11:36:00,
2013-07-15 07:41:00,76.0,73.8,30.28,ESE,103,0.0,0.0,93,0.00,,---,0.00,VWS V14.01,2013-07-15 11:41:00,
2013-07-15 07:46:00,76.2,74.0,30.28,ESE,103,0.0,0.0,93,0.00,,---,0.00,VWS V14.01,2013-07-15 11:46:00,
2013-07-15 07:51:00,76.5,74.0,30.28,ESE,103,0.0,0.0,92,0.00,,---,0.00,VWS V14.01,2013-07-15 11:51:00,
2013-07-15 07:56:00,76.8,74.0,30.28,ESE,103,0.0,0.0,91,0.00,,---,0.00,VWS V14.01,2013-07-15 11:56:00,
2013-07-15 08:01:00,77.1,74.3,30.28,ESE,103,0.0,0.0,91,0.00,,---,0.00,VWS V14.01,2013-07-15 12:01:00,
2013-07-15 08:06:00,77.4,74.6,30.29,ESE,103,0.0,0.0,91,0.00,,---,0.00,VWS V14.01,2013-07-15 12:06:00,
2013-07-15 08:11:00,77.7,74.9,30.29,ESE,103,0.0,0.0,91,0.00,,---,0.00,VWS V14.01,2013-07-15 12:11:00,
2013-07-15 08:16:00,77.9,74.7,30.29,ESE,103,0.0,0.0,90,0.00,,---,0.00,VWS V14.01,2013-07-15 12:16:00,
2013-07-15 08:21:00,78.0,74.5,30.29,ESE,103,0.0,0.0,89,0.00,,---,0.00,VWS V14.01,2013-07-15 12:21:00,
2013-07-15 08:26:00,78.2,74.7,30.29,ESE,103,0.0,0.0,89,0.00,,---,0.00,VWS V14.01,2013-07-15 12:26:00,
2013-07-15 08:31:00,78.2,74.4,30.29,ESE,103,0.0,0.0,88,0.00,,---,0.00,VWS V14.01,2013-07-15 12:31:00,
2013-07-15 08:36:00,78.2,74.7,30.29,NNW,346,0.0,0.0,89,0.00,,---,0.00,VWS V14.01,2013-07-15 12:36:00,
2013-07-15 08:41:00,78.5,74.7,30.29,NNW,346,0.0,0.0,88,0.00,,---,0.00,VWS V14.01,2013-07-15 12:41:00,
2013-07-15 08:46:00,78.8,74.9,30.29,NNW,346,0.0,0.0,88,0.00,,---,0.00,VWS V14.01,2013-07-15 12:46:00,
2013-07-15 08:51:00,79.1,74.9,30.29,NNW,346,0.0,0.0,87,0.00,,---,0.00,VWS V14.01,2013-07-15 12:51:00,
2013-07-15 08:56:00,79.1,74.6,30.29,North,355,0.0,0.0,86,0.00,,---,0.00,VWS V14.01,2013-07-15 12:56:00,
2013-07-15 09:01:00,79.2,74.7,30.29,North,5,0.0,0.0,86,0.00,,---,0.00,VWS V14.01,2013-07-15 13:01:00,
2013-07-15 09:06:00,79.3,74.4,30.29,North,5,0.0,0.0,85,0.00,,---,0.00,VWS V14.01,2013-07-15 13:06:00,
2013-07-15 09:11:00,79.3,74.1,30.29,North,5,0.0,0.0,84,0.00,,---,0.00,VWS V14.01,2013-07-15 13:11:00,
2013-07-15 09:16:00,79.3,74.4,30.29,North,5,0.0,0.0,85,0.00,,---,0.00,VWS V14.01,2013-07-15 13:16:00,
2013-07-15 09:21:00,79.4,74.5,30.29,North,5,0.0,0.0,85,0.00,,---,0.00,VWS V14.01,2013-07-15 13:21:00,
2013-07-15 09:26:00,79.5,74.2,30.29,North,5,0.0,0.0,84,0.00,,---,0.00,VWS V14.01,2013-07-15 13:26:00,
2013-07-15 09:31:00,79.6,74.7,30.29,North,5,0.0,0.0,85,0.00,,---,0.00,VWS V14.01,2013-07-15 13:31:00,
2013-07-15 09:36:00,80.0,75.1,30.28,North,5,0.0,0.0,85,0.00,,---,0.00,VWS V14.01,2013-07-15 13:36:00,
2013-07-15 09:41:00,80.3,75.0,30.28,North,5,0.0,0.0,84,0.00,,---,0.00,VWS V14.01,2013-07-15 13:41:00,
2013-07-15 09:46:00,80.7,75.1,30.28,North,5,0.0,0.0,83,0.00,,---,0.00,VWS V14.01,2013-07-15 13:46:00,
2013-07-15 09:51:00,81.0,75.3,30.28,North,5,0.0,0.0,83,0.00,,---,0.00,VWS V14.01,2013-07-15 13:51:00,
2013-07-15 09:56:00,81.1,75.1,30.28,North,5,0.0,0.0,82,0.00,,---,0.00,VWS V14.01,2013-07-15 13:56:00,
2013-07-15 10:01:00,81.2,74.8,30.28,North,5,0.0,0.0,81,0.00,,---,0.00,VWS V14.01,2013-07-15 14:01:00,
2013-07-15 10:06:00,81.4,75.0,30.28,North,5,0.0,0.0,81,0.00,,---,0.00,VWS V14.01,2013-07-15 14:06:00,
2013-07-15 10:11:00,81.7,74.9,30.28,North,5,0.0,0.0,80,0.00,,---,0.00,VWS V14.01,2013-07-15 14:11:00,
2013-07-15 10:16:00,82.1,75.7,30.28,North,5,0.0,0.0,81,0.00,,---,0.00,VWS V14.01,2013-07-15 14:16:00,
2013-07-15 10:21:00,82.5,75.7,30.28,North,5,0.0,0.0,80,0.00,,---,0.00,VWS V14.01,2013-07-15 14:21:00,
2013-07-15 10:26:00,83.4,76.2,30.28,North,5,0.0,0.0,79,0.00,,---,0.00,VWS V14.01,2013-07-15 14:26:00,
2013-07-15 10:31:00,83.9,75.9,30.28,North,5,0.0,0.0,77,0.00,,---,0.00,VWS V14.01,2013-07-15 14:31:00,
2013-07-15 10:36:00,84.4,76.4,30.28,North,5,0.0,0.0,77,0.00,,---,0.00,VWS V14.01,2013-07-15 14:36:00,
2013-07-15 10:41:00,84.8,76.4,30.28,North,5,0.0,0.0,76,0.00,,---,0.00,VWS V14.01,2013-07-15 14:41:00,
2013-07-15 10:46:00,85.3,76.5,30.28,North,5,0.0,0.0,75,0.00,,---,0.00,VWS V14.01,2013-07-15 14:46:00,
2013-07-15 10:51:00,85.5,76.7,30.28,North,5,0.0,0.0,75,0.00,,---,0.00,VWS V14.01,2013-07-15 14:51:00,
2013-07-15 10:56:00,85.9,76.7,30.28,North,5,0.0,0.0,74,0.00,,---,0.00,VWS V14.01,2013-07-15 14:56:00,
2013-07-15 11:02:00,85.9,76.2,30.28,North,5,0.0,0.0,73,0.00,,---,0.00,VWS V14.01,2013-07-15 15:02:00,
2013-07-15 11:07:00,85.9,76.2,30.28,North,5,0.0,0.0,73,0.00,,---,0.00,VWS V14.01,2013-07-15 15:07:00,
2013-07-15 11:12:00,86.2,76.1,30.28,North,5,0.0,0.0,72,0.00,,---,0.00,VWS V14.01,2013-07-15 15:12:00,
2013-07-15 11:17:00,85.8,76.2,30.28,North,5,0.0,0.0,73,0.00,,---,0.00,VWS V14.01,2013-07-15 15:17:00,
2013-07-15 11:22:00,85.9,76.2,30.28,North,5,0.0,0.0,73,0.00,,---,0.00,VWS V14.01,2013-07-15 15:22:00,
2013-07-15 11:27:00,85.9,76.2,30.28,North,5,0.0,0.0,73,0.00,,---,0.00,VWS V14.01,2013-07-15 15:27:00,
2013-07-15 11:32:00,86.1,76.8,30.28,North,5,0.0,0.0,74,0.00,,---,0.00,VWS V14.01,2013-07-15 15:32:00,
2013-07-15 11:37:00,86.4,75.9,30.27,North,5,0.0,0.0,71,0.00,,---,0.00,VWS V14.01,2013-07-15 15:37:00,
2013-07-15 11:42:00,86.7,77.4,30.27,North,5,0.0,0.0,74,0.00,,---,0.00,VWS V14.01,2013-07-15 15:42:00,
2013-07-15 11:48:00,87.1,77.0,30.27,North,5,0.0,0.0,72,0.00,,---,0.00,VWS V14.01,2013-07-15 15:48:00,
2013-07-15 11:53:00,87.3,77.2,30.27,North,5,0.0,0.0,72,0.00,,---,0.00,VWS V14.01,2013-07-15 15:53:00,
2013-07-15 11:58:00,87.5,76.5,30.27,North,5,0.0,0.0,70,0.00,,---,0.00,VWS V14.01,2013-07-15 15:58:00,
2013-07-15 12:03:00,87.6,76.2,30.27,North,5,0.0,0.0,69,0.00,,---,0.00,VWS V14.01,2013-07-15 16:03:00,
2013-07-15 12:08:00,87.8,75.9,30.27,North,5,0.0,0.0,68,0.00,,---,0.00,VWS V14.01,2013-07-15 16:08:00,
2013-07-15 12:13:00,88.0,75.7,30.27,North,5,0.0,0.0,67,0.00,,---,0.00,VWS V14.01,2013-07-15 16:13:00,
2013-07-15 12:18:00,88.2,75.9,30.27,North,5,0.0,0.0,67,0.00,,---,0.00,VWS V14.01,2013-07-15 16:18:00,
2013-07-15 12:23:00,88.3,76.0,30.27,North,5,0.0,0.0,67,0.00,,---,0.00,VWS V14.01,2013-07-15 16:23:00,
2013-07-15 12:28:00,88.5,77.5,30.27,North,5,0.0,0.0,70,0.00,,---,0.00,VWS V14.01,2013-07-15 16:28:00,
2013-07-15 12:33:00,88.5,76.2,30.27,North,5,0.0,0.0,67,0.00,,---,0.00,VWS V14.01,2013-07-15 16:33:00,
2013-07-15 12:38:00,88.4,76.1,30.27,North,5,0.0,0.0,67,0.00,,---,0.00,VWS V14.01,2013-07-15 16:38:00,
2013-07-15 12:43:00,88.6,76.7,30.27,North,5,0.0,0.0,68,0.00,,---,0.00,VWS V14.01,2013-07-15 16:43:00,
2013-07-15 12:49:00,88.2,75.4,30.26,North,5,0.0,0.0,66,0.00,,---,0.00,VWS V14.01,2013-07-15 16:49:00,
2013-07-15 12:54:00,87.9,74.7,30.27,North,5,0.0,0.0,65,0.00,,---,0.00,VWS V14.01,2013-07-15 16:54:00,
2013-07-15 12:59:00,88.1,76.2,30.26,North,5,0.0,0.0,68,0.00,,---,0.00,VWS V14.01,2013-07-15 16:59:00,
2013-07-15 13:04:00,88.4,75.6,30.26,North,5,0.0,0.0,66,0.00,,---,0.00,VWS V14.01,2013-07-15 17:04:00,
2013-07-15 13:09:00,88.6,75.3,30.26,North,5,0.0,0.0,65,0.00,,---,0.00,VWS V14.01,2013-07-15 17:09:00,
2013-07-15 13:14:00,88.5,76.6,30.26,North,5,0.0,0.0,68,0.00,,---,0.00,VWS V14.01,2013-07-15 17:14:00,
2013-07-15 13:19:00,88.8,76.4,30.26,North,5,0.0,0.0,67,0.00,,---,0.00,VWS V14.01,2013-07-15 17:19:00,
2013-07-15 13:24:00,89.0,76.6,30.26,North,5,0.0,0.0,67,0.00,,---,0.00,VWS V14.01,2013-07-15 17:24:00,
2013-07-15 13:29:00,89.2,76.8,30.26,North,5,0.0,0.0,67,0.00,,---,0.00,VWS V14.01,2013-07-15 17:29:00,
2013-07-15 13:34:00,89.5,75.2,30.26,North,5,0.0,0.0,63,0.00,,---,0.00,VWS V14.01,2013-07-15 17:34:00,
2013-07-15 13:39:00,89.8,76.0,30.25,North,5,0.0,0.0,64,0.00,,---,0.00,VWS V14.01,2013-07-15 17:39:00,
2013-07-15 13:44:00,89.7,75.9,30.25,North,5,0.0,0.0,64,0.00,,---,0.00,VWS V14.01,2013-07-15 17:44:00,
2013-07-15 13:49:00,89.6,74.9,30.25,North,5,0.0,0.0,62,0.00,,---,0.00,VWS V14.01,2013-07-15 17:49:00,
2013-07-15 13:54:00,89.7,75.4,30.25,North,5,0.0,0.0,63,0.00,,---,0.00,VWS V14.01,2013-07-15 17:54:00,
2013-07-15 14:00:00,89.6,74.9,30.25,North,5,0.0,0.0,62,0.00,,---,0.00,VWS V14.01,2013-07-15 18:00:00,
2013-07-15 14:04:00,89.6,75.3,30.25,North,5,0.0,0.0,63,0.00,,---,0.00,VWS V14.01,2013-07-15 18:04:00,
2013-07-15 14:10:00,89.6,74.4,30.25,North,5,0.0,0.0,61,0.00,,---,0.00,VWS V14.01,2013-07-15 18:10:00,
2013-07-15 14:15:00,89.7,74.5,30.25,North,5,0.0,0.0,61,0.00,,---,0.00,VWS V14.01,2013-07-15 18:15:00,
2013-07-15 14:20:00,90.0,75.2,30.25,North,5,0.0,0.0,62,0.00,,---,0.00,VWS V14.01,2013-07-15 18:20:00,
2013-07-15 14:25:00,90.1,74.8,30.25,North,5,0.0,0.0,61,0.00,,---,0.00,VWS V14.01,2013-07-15 18:25:00,
2013-07-15 14:30:00,90.0,75.7,30.24,North,5,0.0,0.0,63,0.00,,---,0.00,VWS V14.01,2013-07-15 18:30:00,
2013-07-15 14:35:00,89.6,75.3,30.24,NNE,26,0.0,3.0,63,0.00,,---,0.00,VWS V14.01,2013-07-15 18:35:00,
2013-07-15 14:40:00,89.4,76.1,30.24,NNE,26,0.0,3.0,65,0.00,,---,0.00,VWS V14.01,2013-07-15 18:40:00,
2013-07-15 14:45:00,89.6,76.7,30.24,NNE,26,0.0,3.0,66,0.00,,---,0.00,VWS V14.01,2013-07-15 18:45:00,
2013-07-15 14:50:00,89.9,76.1,30.24,NNE,26,0.0,3.0,64,0.00,,---,0.00,VWS V14.01,2013-07-15 18:50:00,
2013-07-15 14:55:00,90.1,76.3,30.24,NNE,26,0.0,1.0,64,0.00,,---,0.00,VWS V14.01,2013-07-15 18:55:00,
2013-07-15 15:00:00,90.2,77.3,30.24,NNE,26,0.0,1.0,66,0.00,,---,0.00,VWS V14.01,2013-07-15 19:00:00,
2013-07-15 15:05:00,90.3,76.9,30.24,NNE,27,0.0,1.0,65,0.00,,---,0.00,VWS V14.01,2013-07-15 19:05:00,
2013-07-15 15:10:00,90.0,75.7,30.24,NNE,27,0.0,1.0,63,0.00,,---,0.00,VWS V14.01,2013-07-15 19:10:00,
2013-07-15 15:15:00,90.1,76.3,30.23,NNE,27,0.0,1.0,64,0.00,,---,0.00,VWS V14.01,2013-07-15 19:15:00,
2013-07-15 15:20:00,90.2,76.8,30.23,NNE,27,0.0,2.0,65,0.00,,---,0.00,VWS V14.01,2013-07-15 19:20:00,
2013-07-15 15:25:00,90.1,77.2,30.23,NNE,27,0.0,0.0,66,0.00,,---,0.00,VWS V14.01,2013-07-15 19:25:00,
2013-07-15 15:30:00,90.0,78.0,30.23,NNE,27,0.0,1.0,68,0.00,,---,0.00,VWS V14.01,2013-07-15 19:30:00,
2013-07-15 15:35:00,90.0,76.7,30.23,NNE,27,0.0,1.0,65,0.00,,---,0.00,VWS V14.01,2013-07-15 19:35:00,
2013-07-15 15:40:00,90.1,77.2,30.23,NNE,27,0.0,1.0,66,0.00,,---,0.00,VWS V14.01,2013-07-15 19:40:00,
2013-07-15 15:45:00,90.2,77.3,30.23,NNE,27,0.0,1.0,66,0.00,,---,0.00,VWS V14.01,2013-07-15 19:45:00,
2013-07-15 15:50:00,90.1,75.8,30.23,NNE,27,0.0,1.0,63,0.00,,---,0.00,VWS V14.01,2013-07-15 19:50:00,
2013-07-15 15:56:00,90.1,76.3,30.23,NNE,27,0.0,3.0,64,0.00,,---,0.00,VWS V14.01,2013-07-15 19:56:00,
2013-07-15 16:01:00,90.1,76.3,30.23,NNE,27,1.0,3.0,64,0.00,,---,0.00,VWS V14.01,2013-07-15 20:01:00,
2013-07-15 16:06:00,90.0,75.2,30.23,NNE,27,0.0,3.0,62,0.00,,---,0.00,VWS V14.01,2013-07-15 20:06:00,
2013-07-15 16:11:00,89.8,76.5,30.23,ENE,73,0.0,3.0,65,0.00,,---,0.00,VWS V14.01,2013-07-15 20:11:00,
2013-07-15 16:16:00,89.7,75.4,30.23,ENE,73,0.0,3.0,63,0.00,,---,0.00,VWS V14.01,2013-07-15 20:16:00,
2013-07-15 16:21:00,89.3,75.1,30.23,ENE,73,0.0,3.0,63,0.00,,---,0.00,VWS V14.01,2013-07-15 20:21:00,
2013-07-15 16:26:00,88.8,75.1,30.22,ENE,73,0.0,0.0,64,0.00,,---,0.00,VWS V14.01,2013-07-15 20:26:00,
2013-07-15 16:31:00,89.0,76.2,30.22,ENE,73,0.0,0.0,66,0.00,,---,0.00,VWS V14.01,2013-07-15 20:31:00,
2013-07-15 16:36:00,89.7,76.4,30.22,ENE,73,0.0,1.0,65,0.00,,---,0.00,VWS V14.01,2013-07-15 20:36:00,
2013-07-15 16:41:00,89.7,76.4,30.22,ENE,73,0.0,1.0,65,0.00,,---,0.00,VWS V14.01,2013-07-15 20:41:00,
2013-07-15 16:46:00,89.5,75.7,30.22,ENE,73,0.0,1.0,64,0.00,,---,0.00,VWS V14.01,2013-07-15 20:46:00,
2013-07-15 16:52:00,89.1,76.3,30.22,ENE,73,0.0,1.0,66,0.00,,---,0.00,VWS V14.01,2013-07-15 20:52:00,
2013-07-15 16:57:00,88.9,76.1,30.22,ENE,73,0.0,0.0,66,0.00,,---,0.00,VWS V14.01,2013-07-15 20:57:00,
2013-07-15 17:02:00,88.3,75.5,30.22,ENE,73,0.0,1.0,66,0.00,,---,0.00,VWS V14.01,2013-07-15 21:02:00,
2013-07-15 17:07:00,88.0,75.7,30.22,ENE,73,0.0,1.0,67,0.00,,---,0.00,VWS V14.01,2013-07-15 21:07:00,
2013-07-15 17:12:00,87.9,76.0,30.22,ENE,73,0.0,1.0,68,0.00,,---,0.00,VWS V14.01,2013-07-15 21:12:00,
2013-07-15 17:17:00,88.1,76.2,30.22,ENE,73,0.0,1.0,68,0.00,,---,0.00,VWS V14.01,2013-07-15 21:17:00,
2013-07-15 17:22:00,88.1,75.3,30.22,ENE,73,0.0,1.0,66,0.00,,---,0.00,VWS V14.01,2013-07-15 21:22:00,
2013-07-15 17:27:00,87.8,75.5,30.21,ENE,73,0.0,0.0,67,0.00,,---,0.00,VWS V14.01,2013-07-15 21:27:00,
2013-07-15 17:32:00,87.6,75.7,30.21,ENE,73,0.0,0.0,68,0.00,,---,0.00,VWS V14.01,2013-07-15 21:32:00,
2013-07-15 17:37:00,87.4,76.0,30.21,ENE,73,0.0,0.0,69,0.00,,---,0.00,VWS V14.01,2013-07-15 21:37:00,
2013-07-15 17:42:00,87.2,75.8,30.21,ENE,73,0.0,0.0,69,0.00,,---,0.00,VWS V14.01,2013-07-15 21:42:00,
2013-07-15 17:47:00,87.2,76.2,30.21,ENE,73,1.0,1.0,70,0.00,,---,0.00,VWS V14.01,2013-07-15 21:47:00,
2013-07-15 17:52:00,87.0,76.0,30.21,ENE,73,0.0,2.0,70,0.00,,---,0.00,VWS V14.01,2013-07-15 21:52:00,
2013-07-15 17:57:00,86.9,75.9,30.21,ENE,73,0.0,0.0,70,0.00,,---,0.00,VWS V14.01,2013-07-15 21:57:00,
2013-07-15 18:02:00,86.8,75.8,30.21,ENE,73,0.0,1.0,70,0.00,,---,0.00,VWS V14.01,2013-07-15 22:02:00,
2013-07-15 18:07:00,86.6,75.7,30.20,NE,42,0.0,3.0,70,0.00,,---,0.00,VWS V14.01,2013-07-15 22:07:00,
2013-07-15 18:12:00,86.4,75.5,30.20,NE,42,0.0,3.0,70,0.00,,---,0.00,VWS V14.01,2013-07-15 22:12:00,
2013-07-15 18:18:00,86.3,75.8,30.20,NE,42,0.0,3.0,71,0.00,,---,0.00,VWS V14.01,2013-07-15 22:18:00,
2013-07-15 18:23:00,86.0,75.5,30.20,NE,42,0.0,3.0,71,0.00,,---,0.00,VWS V14.01,2013-07-15 22:23:00,
2013-07-15 18:28:00,85.9,75.4,30.20,NE,42,0.0,0.0,71,0.00,,---,0.00,VWS V14.01,2013-07-15 22:28:00,
2013-07-15 18:33:00,85.7,75.2,30.20,NE,42,0.0,1.0,71,0.00,,---,0.00,VWS V14.01,2013-07-15 22:33:00,
2013-07-15 18:38:00,85.5,75.0,30.20,NE,49,0.0,2.0,71,0.00,,---,0.00,VWS V14.01,2013-07-15 22:38:00,
2013-07-15 18:43:00,85.3,75.2,30.20,NE,49,0.0,2.0,72,0.00,,---,0.00,VWS V14.01,2013-07-15 22:43:00,
2013-07-15 18:48:00,85.1,75.1,30.20,NE,49,0.0,2.0,72,0.00,,---,0.00,VWS V14.01,2013-07-15 22:48:00,
2013-07-15 18:53:00,84.9,74.4,30.20,NE,49,0.0,2.0,71,0.00,,---,0.00,VWS V14.01,2013-07-15 22:53:00,
2013-07-15 18:58:00,84.7,74.3,30.20,NE,50,0.0,2.0,71,0.00,,---,0.00,VWS V14.01,2013-07-15 22:58:00,
2013-07-15 19:03:00,84.6,75.0,30.20,NE,38,0.0,2.0,73,0.00,,---,0.00,VWS V14.01,2013-07-15 23:03:00,
2013-07-15 19:08:00,84.3,74.7,30.21,NE,35,0.0,2.0,73,0.00,,---,0.00,VWS V14.01,2013-07-15 23:08:00,
2013-07-15 19:13:00,84.0,74.4,30.21,NE,35,0.0,2.0,73,0.00,,---,0.00,VWS V14.01,2013-07-15 23:13:00,
2013-07-15 19:18:00,83.7,74.1,30.21,NNE,23,0.0,2.0,73,0.00,,---,0.00,VWS V14.01,2013-07-15 23:18:00,
2013-07-15 19:23:00,83.5,73.9,30.21,NNE,23,0.0,2.0,73,0.00,,---,0.00,VWS V14.01,2013-07-15 23:23:00,
2013-07-15 19:28:00,83.3,74.2,30.21,NNE,23,0.0,1.0,74,0.00,,---,0.00,VWS V14.01,2013-07-15 23:28:00,
2013-07-15 19:33:00,83.0,73.9,30.21,NNE,22,0.0,1.0,74,0.00,,---,0.00,VWS V14.01,2013-07-15 23:33:00,
2013-07-15 19:38:00,82.8,73.3,30.21,NNE,22,0.0,2.0,73,0.00,,---,0.00,VWS V14.01,2013-07-15 23:38:00,
2013-07-15 19:43:00,82.6,73.5,30.21,WSW,245,0.0,2.0,74,0.00,,---,0.00,VWS V14.01,2013-07-15 23:43:00,
2013-07-15 19:49:00,82.3,72.8,30.21,WNW,293,0.0,2.0,73,0.00,,---,0.00,VWS V14.01,2013-07-15 23:49:00,
2013-07-15 19:54:00,82.1,73.0,30.21,West,273,0.0,4.0,74,0.00,,---,0.00,VWS V14.01,2013-07-15 23:54:00,
2013-07-15 19:59:00,81.8,72.3,30.21,West,273,0.0,1.0,73,0.00,,---,0.00,VWS V14.01,2013-07-15 23:59:00,
2013-07-15 20:04:00,81.6,72.1,30.21,West,273,0.0,1.0,73,0.00,,---,0.00,VWS V14.01,2013-07-16 00:04:00,
2013-07-15 20:09:00,81.4,71.9,30.21,West,273,0.0,1.0,73,0.00,,---,0.00,VWS V14.01,2013-07-16 00:09:00,
2013-07-15 20:14:00,81.1,71.6,30.21,West,273,0.0,1.0,73,0.00,,---,0.00,VWS V14.01,2013-07-16 00:14:00,
2013-07-15 20:19:00,80.9,72.2,30.21,West,273,0.0,1.0,75,0.00,,---,0.00,VWS V14.01,2013-07-16 00:19:00,
2013-07-15 20:24:00,80.5,72.2,30.21,West,273,0.0,0.0,76,0.00,,---,0.00,VWS V14.01,2013-07-16 00:24:00,
2013-07-15 20:29:00,80.0,72.2,30.21,West,273,0.0,0.0,77,0.00,,---,0.00,VWS V14.01,2013-07-16 00:29:00,
2013-07-15 20:34:00,79.6,72.1,30.22,West,273,0.0,0.0,78,0.00,,---,0.00,VWS V14.01,2013-07-16 00:34:00,
2013-07-15 20:39:00,79.2,72.1,30.21,West,273,0.0,0.0,79,0.00,,---,0.00,VWS V14.01,2013-07-16 00:39:00,
2013-07-15 20:44:00,78.7,72.0,30.22,West,273,0.0,1.0,80,0.00,,---,0.00,VWS V14.01,2013-07-16 00:44:00,
2013-07-15 20:49:00,78.3,72.0,30.22,West,273,0.0,1.0,81,0.00,,---,0.00,VWS V14.01,2013-07-16 00:49:00,
2013-07-15 20:55:00,78.0,71.7,30.22,West,273,0.0,0.0,81,0.00,,---,0.00,VWS V14.01,2013-07-16 00:55:00,
2013-07-15 21:00:00,77.5,71.6,30.22,West,273,0.0,1.0,82,0.00,,---,0.00,VWS V14.01,2013-07-16 01:00:00,
2013-07-15 21:05:00,77.2,71.3,30.22,West,273,0.0,1.0,82,0.00,,---,0.00,VWS V14.01,2013-07-16 01:05:00,
2013-07-15 21:10:00,76.7,71.2,30.22,West,273,1.0,1.0,83,0.00,,---,0.00,VWS V14.01,2013-07-16 01:10:00,
2013-07-15 21:15:00,76.3,71.1,30.22,West,273,0.0,1.0,84,0.00,,---,0.00,VWS V14.01,2013-07-16 01:15:00,
2013-07-15 21:20:00,76.0,70.8,30.22,West,273,0.0,1.0,84,0.00,,---,0.00,VWS V14.01,2013-07-16 01:20:00,
2013-07-15 21:25:00,75.6,70.8,30.23,West,273,0.0,1.0,85,0.00,,---,0.00,VWS V14.01,2013-07-16 01:25:00,
2013-07-15 21:30:00,75.4,70.6,30.23,West,273,0.0,1.0,85,0.00,,---,0.00,VWS V14.01,2013-07-16 01:30:00,
2013-07-15 21:35:00,75.1,70.3,30.23,West,273,0.0,1.0,85,0.00,,---,0.00,VWS V14.01,2013-07-16 01:35:00,
2013-07-15 21:40:00,74.8,70.0,30.23,West,273,1.0,1.0,85,0.00,,---,0.00,VWS V14.01,2013-07-16 01:40:00,
2013-07-15 21:46:00,74.7,69.6,30.23,West,273,0.0,2.0,84,0.00,,---,0.00,VWS V14.01,2013-07-16 01:46:00,
2013-07-15 21:51:00,74.6,69.1,30.23,West,273,0.0,2.0,83,0.00,,---,0.00,VWS V14.01,2013-07-16 01:51:00,
2013-07-15 21:56:00,74.3,68.8,30.23,West,273,0.0,1.0,83,0.00,,---,0.00,VWS V14.01,2013-07-16 01:56:00,
2013-07-15 22:01:00,73.9,68.8,30.23,West,273,0.0,2.0,84,0.00,,---,0.00,VWS V14.01,2013-07-16 02:01:00,
2013-07-15 22:06:00,73.5,68.7,30.23,West,273,0.0,2.0,85,0.00,,---,0.00,VWS V14.01,2013-07-16 02:06:00,
2013-07-15 22:11:00,73.1,68.7,30.23,West,273,0.0,2.0,86,0.00,,---,0.00,VWS V14.01,2013-07-16 02:11:00,
2013-07-15 22:16:00,72.8,68.7,30.23,West,273,0.0,2.0,87,0.00,,---,0.00,VWS V14.01,2013-07-16 02:16:00,
2013-07-15 22:21:00,72.8,68.7,30.23,West,273,2.0,2.0,87,0.00,,---,0.00,VWS V14.01,2013-07-16 02:21:00,
2013-07-15 22:26:00,73.0,68.6,30.24,West,273,0.0,2.0,86,0.00,,---,0.00,VWS V14.01,2013-07-16 02:26:00,
2013-07-15 22:31:00,73.0,68.6,30.24,West,273,0.0,2.0,86,0.00,,---,0.00,VWS V14.01,2013-07-16 02:31:00,
2013-07-15 22:36:00,72.8,68.4,30.24,West,273,2.0,2.0,86,0.00,,---,0.00,VWS V14.01,2013-07-16 02:36:00,
2013-07-15 22:41:00,72.6,68.2,30.24,West,273,0.0,2.0,86,0.00,,---,0.00,VWS V14.01,2013-07-16 02:41:00,
2013-07-15 22:46:00,72.4,68.0,30.24,West,273,0.0,2.0,86,0.00,,---,0.00,VWS V14.01,2013-07-16 02:46:00,
2013-07-15 22:51:00,72.3,67.9,30.24,West,273,0.0,2.0,86,0.00,,---,0.00,VWS V14.01,2013-07-16 02:51:00,
2013-07-15 22:56:00,72.1,68.0,30.24,West,273,0.0,0.0,87,0.00,,---,0.00,VWS V14.01,2013-07-16 02:56:00,
2013-07-15 23:02:00,71.8,67.7,30.24,West,273,0.0,0.0,87,0.00,,---,0.00,VWS V14.01,2013-07-16 03:02:00,
2013-07-15 23:07:00,71.6,67.5,30.24,West,273,1.0,2.0,87,0.00,,---,0.00,VWS V14.01,2013-07-16 03:07:00,
2013-07-15 23:12:00,71.2,67.5,30.24,West,273,0.0,2.0,88,0.00,,---,0.00,VWS V14.01,2013-07-16 03:12:00,
2013-07-15 23:17:00,71.0,67.3,30.24,West,273,0.0,2.0,88,0.00,,---,0.00,VWS V14.01,2013-07-16 03:17:00,
2013-07-15 23:22:00,71.0,67.3,30.24,West,273,0.0,2.0,88,0.00,,---,0.00,VWS V14.01,2013-07-16 03:22:00,
2013-07-15 23:27:00,71.0,67.3,30.24,West,273,0.0,1.0,88,0.00,,---,0.00,VWS V14.01,2013-07-16 03:27:00,
2013-07-15 23:32:00,71.1,67.0,30.24,West,273,0.0,1.0,87,0.00,,---,0.00,VWS V14.01,2013-07-16 03:32:00,
2013-07-15 23:37:00,71.1,67.0,30.24,West,273,1.0,1.0,87,0.00,,---,0.00,VWS V14.01,2013-07-16 03:37:00,
2013-07-15 23:42:00,71.2,67.1,30.23,West,273,0.0,1.0,87,0.00,,---,0.00,VWS V14.01,2013-07-16 03:42:00,
2013-07-15 23:47:00,71.0,66.9,30.23,West,273,0.0,1.0,87,0.00,,---,0.00,VWS V14.01,2013-07-16 03:47:00,
2013-07-15 23:52:00,70.8,66.7,30.23,West,273,0.0,1.0,87,0.00,,---,0.00,VWS V14.01,2013-07-16 03:52:00,
2013-07-15 23:57:00,70.7,67.0,30.24,West,273,0.0,1.0,88,0.00,,---,0.00,VWS V14.01,2013-07-16 03:57:00,